アマラウ彗星

C/2020 O2 ( Amaral )

English version
Home page
Updated on September 18, 2021

---------------------------------------------------------------------

・ プロフィール

発見日 2020年7月23日
発見光度 18.1等
発見者 Leonardo S. Amaral (Rio de Janeiro, Brazil)

・ 写真集

・ 軌道要素

Epoch 2021 Aug. 14.0 TT = JDT 2459440.5
T 2021 Aug. 28.50630 TT                                 Rudenko
q   4.8621598            (2000.0)            P               Q
z  -0.0005111      Peri.   10.29516     -0.17092562     +0.34091369
 +/-0.0000011      Node   256.75582     -0.95798037     -0.27684577
e   1.0024849      Incl.   71.74734     -0.23034331     +0.89840652
From 516 observations 2020 July 23-2021 Sept. 1, mean residual 0".5.

・ 星図

・ 光度変化

        m1 = -1.2 + 5 logΔ + 20.0 log r

---------------------------------------------------------------------

軌道要素はM.P.E.C. 2021-R75に掲載されたものです。
星図はステラナビゲータ Ver.10 (アストロアーツ) で作成したものです。
光度グラフはComet for Windowsで作成したものです。

---------------------------------------------------------------------

Copyright(C) Seiichi Yoshida (comet@aerith.net). All rights reserved.